Location: College Park
(38.9810°N, 76.9370°W)
Time: 13:42:11
(UTC-05:00)

Tiangong 1 - Pass Details

Date: 10 November 2017
Orbit: 283 x 307 km, 42.8° (Epoch: 24 November)

Event Time Altitude Azimuth Distance (km) Brightness Sun altitude
Exits shadow 04:32:20 10° 73° (ENE) 1,138 4.4 -26.0°
Drops below altitude 10° 04:32:20 10° 73° (ENE) 1,138 4.4 -26.0°
Sets 04:34:23 0° 84° (E) 1,964 6.0 -25.6°
